• In United Kingdom
  • List of Countries
  • For 7 days
  • Water Temperature
  • Satellite Maps
  • Weather Map
  • Weather Widgets
  • user-avatar
    Login

    Hourly Weather Río Gallegos

    Today, 16 January, Tuesday

    Time Temperature Precipitation Wind Pressure Humidity
    00:00 +14°C° 0.1 mm 4 mps 748 mmHg 56%
    01:00 +14°C° 0.1 mm 4 mps 747 mmHg 56%
    02:00 +14°C° 0 mm 5 mps 747 mmHg 56%
    03:00 +14°C° 0 mm 5 mps 746 mmHg 55%
    04:00 +13°C° 0 mm 6 mps 746 mmHg 55%
    05:00 +14°C° 0 mm 7 mps 746 mmHg 53%
    06:00 +13°C° 0 mm 9 mps 746 mmHg 52%
    07:00 +13°C° 0 mm 10 mps 746 mmHg 51%
    08:00 +14°C° 0 mm 11 mps 746 mmHg 50%
    09:00 +14°C° 0 mm 11 mps 746 mmHg 49%
    10:00 +14°C° 0 mm 12 mps 746 mmHg 47%
    11:00 +15°C° 0 mm 12 mps 746 mmHg 44%
    12:00 +15°C° 0 mm 13 mps 746 mmHg 40%
    13:00 +17°C° 0 mm 14 mps 747 mmHg 36%
    14:00 +17°C° 0 mm 14 mps 747 mmHg 38%
    15:00 +15°C° 0 mm 14 mps 748 mmHg 39%
    16:00 +15°C° 0 mm 13 mps 748 mmHg 41%
    17:00 +14°C° 0 mm 13 mps 749 mmHg 44%
    18:00 +13°C° 0 mm 12 mps 749 mmHg 47%
    19:00 +12°C° 0 mm 12 mps 750 mmHg 50%
    20:00 +11°C° 0 mm 11 mps 751 mmHg 54%
    21:00 +9°C° 0 mm 10 mps 751 mmHg 58%
    22:00 +9°C° 0 mm 10 mps 752 mmHg 61%
    23:00 +8°C° 0 mm 9 mps 752 mmHg 62%

    Tomorrow, 17 January, Wednesday

    Time Temperature Precipitation Wind Pressure Humidity
    00:00 +8°C° 0 mm 9 mps 752 mmHg 62%
    01:00 +8°C° 0 mm 9 mps 752 mmHg 63%
    02:00 +7°C° 0 mm 8 mps 752 mmHg 62%
    03:00 +8°C° 0 mm 7 mps 752 mmHg 61%
    04:00 +8°C° 0 mm 7 mps 752 mmHg 60%
    05:00 +8°C° 0.6 mm 6 mps 752 mmHg 63%
    06:00 +7°C° 0.6 mm 5 mps 751 mmHg 66%
    07:00 +7°C° 0.6 mm 4 mps 751 mmHg 68%
    08:00 +7°C° 0.9 mm 6 mps 750 mmHg 69%
    09:00 +7°C° 0.9 mm 8 mps 749 mmHg 69%
    10:00 +7°C° 0.9 mm 10 mps 749 mmHg 69%
    11:00 +9°C° 0.1 mm 10 mps 748 mmHg 65%
    12:00 +11°C° 0.1 mm 10 mps 748 mmHg 61%
    13:00 +13°C° 0.1 mm 9 mps 747 mmHg 57%
    14:00 +13°C° 0 mm 11 mps 747 mmHg 57%
    15:00 +14°C° 0 mm 12 mps 748 mmHg 58%
    16:00 +14°C° 0 mm 13 mps 748 mmHg 58%
    17:00 +13°C° 0 mm 12 mps 749 mmHg 60%
    18:00 +12°C° 0 mm 11 mps 750 mmHg 62%
    19:00 +12°C° 0 mm 10 mps 751 mmHg 64%
    20:00 +11°C° 0 mm 9 mps 751 mmHg 67%
    21:00 +10°C° 0 mm 7 mps 752 mmHg 71%
    22:00 +10°C° 0 mm 5 mps 752 mmHg 74%
    23:00 +10°C° 0.1 mm 5 mps 752 mmHg 76%

    Day after tomorrow, 18 January, Thursday

    Time Temperature Precipitation Wind Pressure Humidity
    00:00 +11°C° 0.1 mm 4 mps 752 mmHg 78%
    01:00 +11°C° 0.1 mm 4 mps 752 mmHg 80%
    02:00 +10°C° 0.4 mm 5 mps 752 mmHg 79%
    03:00 +10°C° 0.4 mm 5 mps 752 mmHg 78%
    04:00 +10°C° 0.4 mm 6 mps 751 mmHg 77%
    05:00 +11°C° 0.1 mm 6 mps 751 mmHg 73%
    06:00 +13°C° 0.1 mm 6 mps 750 mmHg 70%
    07:00 +15°C° 0.1 mm 7 mps 750 mmHg 66%
    08:00 +15°C° 0.5 mm 7 mps 750 mmHg 65%
    09:00 +15°C° 0.5 mm 7 mps 749 mmHg 65%
    10:00 +16°C° 0.5 mm 8 mps 749 mmHg 64%
    11:00 +16°C° 0 mm 8 mps 749 mmHg 64%
    12:00 +16°C° 0 mm 7 mps 749 mmHg 63%
    13:00 +17°C° 0 mm 7 mps 749 mmHg 63%
    14:00 +17°C° 0 mm 9 mps 749 mmHg 59%
    15:00 +18°C° 0 mm 10 mps 749 mmHg 55%
    16:00 +19°C° 0 mm 11 mps 749 mmHg 51%
    17:00 +18°C° 0 mm 11 mps 750 mmHg 53%
    18:00 +17°C° 0 mm 10 mps 751 mmHg 56%
    19:00 +16°C° 0 mm 10 mps 752 mmHg 59%
    20:00 +15°C° 0 mm 9 mps 752 mmHg 62%
    21:00 +13°C° 0 mm 8 mps 753 mmHg 65%
    22:00 +12°C° 0 mm 8 mps 753 mmHg 68%
    23:00 +12°C° 0 mm 7 mps 753 mmHg 69%

    19 January, Friday

    Time Temperature Precipitation Wind Pressure Humidity
    00:00 +13°C° 0 mm 6 mps 753 mmHg 69%
    01:00 +11°C° 0 mm 6 mps 753 mmHg 70%
    02:00 +12°C° 0 mm 5 mps 753 mmHg 69%
    03:00 +12°C° 0 mm 5 mps 752 mmHg 69%
    04:00 +12°C° 0 mm 5 mps 752 mmHg 68%
    05:00 +13°C° 0 mm 6 mps 752 mmHg 66%
    06:00 +15°C° 0 mm 7 mps 751 mmHg 64%
    07:00 +16°C° 0 mm 8 mps 751 mmHg 63%
    08:00 +17°C° 0.1 mm 8 mps 750 mmHg 58%
    09:00 +18°C° 0.1 mm 8 mps 749 mmHg 53%
    10:00 +20°C° 0.1 mm 8 mps 749 mmHg 48%
    11:00 +21°C° 0 mm 9 mps 749 mmHg 48%
    12:00 +22°C° 0 mm 10 mps 748 mmHg 48%
    13:00 +23°C° 0 mm 11 mps 748 mmHg 47%
    14:00 +22°C° 0 mm 11 mps 749 mmHg 53%
    15:00 +19°C° 0 mm 11 mps 749 mmHg 58%
    16:00 +18°C° 0 mm 11 mps 749 mmHg 63%
    17:00 +17°C° 0 mm 11 mps 749 mmHg 63%
    18:00 +17°C° 0 mm 11 mps 750 mmHg 63%
    19:00 +17°C° 0 mm 10 mps 750 mmHg 63%
    20:00 +16°C° 0.1 mm 11 mps 750 mmHg 66%
    21:00 +14°C° 0.1 mm 12 mps 751 mmHg 68%
    22:00 +13°C° 0.1 mm 13 mps 751 mmHg 71%
    23:00 +12°C° 0 mm 14 mps 752 mmHg 68%

    20 January, Saturday

    Time Temperature Precipitation Wind Pressure Humidity
    00:00 +10°C° 0 mm 15 mps 753 mmHg 65%
    01:00 +9°C° 0 mm 15 mps 754 mmHg 63%
    02:00 +8°C° 0 mm 14 mps 754 mmHg 64%
    03:00 +8°C° 0 mm 12 mps 755 mmHg 66%
    04:00 +7°C° 0 mm 10 mps 756 mmHg 68%
    05:00 +8°C° 0 mm 11 mps 756 mmHg 64%
    06:00 +9°C° 0 mm 11 mps 757 mmHg 61%
    07:00 +11°C° 0 mm 11 mps 757 mmHg 57%
    08:00 +12°C° 0 mm 11 mps 757 mmHg 53%
    09:00 +13°C° 0 mm 10 mps 757 mmHg 49%
    10:00 +15°C° 0 mm 9 mps 757 mmHg 45%
    11:00 +16°C° 0 mm 9 mps 757 mmHg 42%
    12:00 +17°C° 0 mm 8 mps 757 mmHg 39%
    13:00 +18°C° 0 mm 8 mps 757 mmHg 35%
    14:00 +18°C° 0 mm 7 mps 756 mmHg 33%
    15:00 +20°C° 0 mm 7 mps 756 mmHg 32%
    16:00 +20°C° 0 mm 7 mps 755 mmHg 30%
    17:00 +18°C° 0 mm 7 mps 755 mmHg 36%
    18:00 +16°C° 0 mm 7 mps 754 mmHg 42%
    19:00 +15°C° 0 mm 7 mps 754 mmHg 48%
    20:00 +14°C° 0 mm 6 mps 753 mmHg 52%
    21:00 +14°C° 0 mm 6 mps 753 mmHg 57%
    22:00 +13°C° 0 mm 5 mps 752 mmHg 61%
    23:00 +13°C° 0 mm 4 mps 752 mmHg 63%

    21 January, Sunday

    Time Temperature Precipitation Wind Pressure Humidity
    00:00 +12°C° 0 mm 3 mps 751 mmHg 65%
    01:00 +13°C° 0 mm 2 mps 750 mmHg 67%
    02:00 +12°C° 0 mm 3 mps 750 mmHg 63%
    03:00 +12°C° 0 mm 3 mps 750 mmHg 58%
    04:00 +12°C° 0 mm 3 mps 749 mmHg 54%
    05:00 +13°C° 0 mm 5 mps 749 mmHg 50%
    06:00 +14°C° 0 mm 6 mps 749 mmHg 45%
    07:00 +15°C° 0 mm 7 mps 749 mmHg 40%
    08:00 +16°C° 0 mm 8 mps 748 mmHg 39%
    09:00 +18°C° 0 mm 10 mps 748 mmHg 38%
    10:00 +19°C° 0 mm 11 mps 748 mmHg 37%
    11:00 +18°C° 0 mm 11 mps 748 mmHg 41%
    12:00 +17°C° 0 mm 12 mps 748 mmHg 46%
    13:00 +15°C° 0 mm 12 mps 748 mmHg 50%
    14:00 +15°C° 0 mm 12 mps 748 mmHg 49%
    15:00 +14°C° 0 mm 12 mps 748 mmHg 47%
    16:00 +14°C° 0 mm 12 mps 748 mmHg 46%
    17:00 +13°C° 0 mm 12 mps 749 mmHg 45%
    18:00 +13°C° 0 mm 12 mps 749 mmHg 44%
    19:00 +12°C° 0 mm 12 mps 750 mmHg 44%
    20:00 +10°C° 0 mm 12 mps 750 mmHg 49%
    21:00 +9°C° 0 mm 11 mps 750 mmHg 54%
    22:00 +8°C° 0 mm 10 mps 751 mmHg 58%
    23:00 +7°C° 0 mm 9 mps 751 mmHg 60%
    Show more